Bellingham, WA
on Tuesday, December 11, 2012

Tuesday
Previous Day Next Day
Daily Summary
 ActualAverageRecord
Temperature
Mean Temperature °F 38°F  
Max Temperature 46°F 44°F 58°F (1995)
Min Temperature 41°F 32°F 20°F (1949)
Degree Days
Heating Degree Days 22 27  
Month to date heating degree days 287  
Cooling Degree Days 0 0  
Month to date cooling degree days 0  
Year to date cooling degree days 42  
Moisture
Dew Point 40°F   
Average Humidity 86    
Maximum Humidity 100    
Minimum Humidity 74    
Precipitation
Precipitation 0.21 in 0.13 in 1.23 in (1955)
Month to date precipitation 1.69  
Year to date precipitation 33.30  
Wind
Wind Speed 10 mph   
Max Wind Speed 17 mph   
Max Gust Speed 29 mph   
Visibility 9 miles   
Events Rain   

Key: T is trace of precipitation, MM is missing value
Source: NWS Daily Summary
Time(PST)TemperatureDew PointHumidity Pressure Visibility Wind DirectionWind SpeedGust SpeedPrecipitationEvents Conditions
12:53 AM 46.0°F 39.9°F 79% 30.02 in 10.0 miles South 16.1 mph 19.6 mph N/A   Overcast
1:53 AM 44.1°F 39.9°F 85% 30.00 in 10.0 miles South 8.1 mph - N/A   Overcast
2:02 AM 44.6°F 39.2°F 81% 29.96 in 10.0 miles South 6.9 mph - N/A   Overcast
2:33 AM 44.6°F 39.2°F 81% 29.95 in 10.0 miles Variable 4.6 mph - N/A   Overcast
2:53 AM 44.1°F 39.9°F 85% 29.96 in 10.0 miles WSW 3.5 mph - N/A   Overcast
3:53 AM 44.1°F 39.9°F 85% 29.93 in 10.0 miles South 5.8 mph - N/A   Overcast
4:40 AM 44.6°F 37.4°F 76% 29.86 in 10.0 miles SE 12.7 mph - N/A   Mostly Cloudy
4:53 AM 45.0°F 37.9°F 76% 29.87 in 10.0 miles SSE 10.4 mph - N/A   Mostly Cloudy
5:53 AM 45.0°F 37.0°F 74% 29.81 in 10.0 miles SE 13.8 mph 24.2 mph N/A   Overcast
6:53 AM 44.1°F 37.9°F 79% 29.78 in 10.0 miles SSE 12.7 mph 24.2 mph 0.00 in Rain Light Rain
7:53 AM 43.0°F 39.0°F 86% 29.76 in 7.0 miles SE 16.1 mph 20.7 mph 0.01 in Rain Light Rain
8:53 AM 44.1°F 39.0°F 82% 29.73 in 10.0 miles SSE 17.3 mph 28.8 mph 0.00 in Rain Light Rain
9:53 AM 44.1°F 37.9°F 79% 29.69 in 10.0 miles SE 17.3 mph 25.3 mph 0.00 in Rain Light Rain
10:10 AM 44.6°F 37.4°F 76% 29.67 in 10.0 miles SE 15.0 mph 20.7 mph 0.00 in Rain Light Rain
10:53 AM 45.0°F 37.9°F 76% 29.67 in 10.0 miles SE 13.8 mph - 0.00 in Rain Light Rain
11:53 AM 45.0°F 37.9°F 76% 29.63 in 10.0 miles SE 13.8 mph 21.9 mph 0.00 in Rain Light Rain
12:53 PM 44.1°F 39.0°F 82% 29.61 in 7.0 miles ESE 10.4 mph - 0.01 in Rain Light Rain
1:53 PM 44.1°F 39.9°F 85% 29.59 in 9.0 miles ESE 11.5 mph - 0.05 in Rain Light Rain
2:53 PM 44.1°F 39.9°F 85% 29.57 in 5.0 miles East 11.5 mph - 0.06 in Rain Light Rain
3:53 PM 43.0°F 39.9°F 89% 29.57 in 4.0 miles East 8.1 mph - 0.07 in Rain Light Rain
4:53 PM 43.0°F 41.0°F 93% 29.56 in 10.0 miles ENE 3.5 mph - 0.01 in Rain Light Rain
5:53 PM 41.0°F 41.0°F 100% 29.56 in 10.0 miles Calm Calm - 0.00 in   Overcast
6:42 PM 44.6°F 41.0°F 87% 29.54 in 10.0 miles SSE 8.1 mph - N/A   Overcast
6:53 PM 44.1°F 41.0°F 89% 29.57 in 10.0 miles ESE 5.8 mph - N/A   Overcast
7:13 PM 42.8°F 41.0°F 93% 29.54 in 10.0 miles SE 8.1 mph - N/A   Overcast
7:53 PM 44.1°F 41.0°F 89% 29.57 in 10.0 miles SE 5.8 mph - N/A   Overcast
8:53 PM 43.0°F 42.1°F 97% 29.59 in 8.0 miles East 3.5 mph - 0.00 in Rain Light Rain
9:53 PM 41.0°F 41.0°F 100% 29.60 in 4.0 miles NNE 3.5 mph - 0.00 in Rain Light Rain
10:53 PM 41.0°F 41.0°F 100% 29.61 in 4.0 miles Calm Calm - 0.00 in Rain Light Rain
11:41 PM 41.0°F 41.0°F 100% 29.59 in 5.0 miles NNE 3.5 mph - 0.00 in   Overcast
11:53 PM 41.0°F 41.0°F 100% 29.62 in 4.0 miles Calm Calm - 0.00 in   Overcast
Moon Phase
Dec. 11 Dec. 13 Dec. 20 Dec. 28 Jan. 04
Sunrise:07:53 AM (PST) Moon Rise:05:50 AM (PST)12/11
Sunset:04:13 PM (PST) Moon Set:03:01 PM (PST)12/11

Copyright © 2014 The Weather Underground, Inc.